Find Starlink 31538

NORAD ID: 59525 Int'l Des: 2024-073 Owner: SPXS Country: US Constellation: starlink operational
LEOCIRCULAR

实时位置

正在加载3D地球...

关于 Starlink 31538

正在加载描述...

即将过境

Passes for default location (London). Set your location on the main map for personalized predictions.

高度历史

Loading altitude history...

两行轨道根数

1 59525U 24073Q 26125.35231513 .00006412 00000-0 24269-3 0 9990
2 59525 43.0040 357.8270 0000557 89.4935 270.5980 15.27528995114848
Epoch: May 5, 2026 • Age: 15 hours

当前状态

高度 493.8 km
速度 7.62 km/s
星下点 -35.77°S, 6.31°E
发射日期 Apr 17, 2024
运行时间 2 years
类型 internet

技术详情

分类 Payload
质量 730.00 kg
干质量 700.00 kg
总质量 730.00 kg
长度 0.30 m
直径 4.10 m
跨度 29.00 m
形状 Box + pan
制造商 SPXS
平台类型 Starlink V2M
阶段状态 In Orbit
所有者/国家 SPXS/US

Most Searched